Home > Weather > Poznan > Past weeks

Flag for Poland Weather for the Past 2 Weeks in Poznan, Poland

Now
39 °F

Fog.


Feels Like: 34 °F
Forecast: 37 / 44 °F
Wind: 7 mph from East

Location: Poznan Airport

Current Time: Feb 14, 2016 at 6:45:39 PM

Latest Report: Feb 14, 2016 at 6:00 PM


Visibility: 2 mi

Pressure: 29.33 "Hg

Humidity: 87%

Dew point: 36 °F

Location of PoznanLocation

Historic Weather in Poznan — Graph

°F

Poznan Temperature Yesterday

Maximum temperature yesterday: 36 °F (at 2:00 PM)
Minimum temperature yesterday: 27 °F (at 4:30 AM)
Average temperature yesterday: 32 °F

High & Low Weather Summary for the Past Weeks

 TemperatureHumidityPressure
High54 °F (Feb 2, 1:30 PM)94% (Feb 1, 8:00 PM)30.21 "Hg (Feb 1, 8:00 PM)
Low27 °F (Feb 13, 4:30 AM)47% (Feb 2, 4:30 PM)29.09 "Hg (Feb 10, 12:00 AM)
Average41 °F78%29.67 "Hg
* Reported Jan 30 5:00 PM — Feb 14 5:30 PM, Poznan, Weather by CustomWeather, © 2016

Note: Actual official high and low records may vary slightly from our data, if they occured in-between our weather recording intervals... More about our weather records

Advertising

Poznan Weather History for the Previous 24 Hours

 ConditionsComfort  
Time TempWeatherWind HumidityBarometerVisibility
5:30 PM
Sun, Feb 14
39 °FFog.6 mph87%29.33 "Hg2 mi
5:00 PM39 °FFog.7 mph87%29.33 "Hg2 mi
4:30 PM39 °FFog.8 mph87%29.30 "Hg2 mi
4:00 PM39 °FFog.7 mph87%29.30 "Hg2 mi
3:30 PM39 °FFog.7 mph87%29.30 "Hg2 mi
3:00 PM37 °FFog.8 mph93%29.27 "Hg2 mi
2:30 PM37 °FFog.7 mph93%29.27 "Hg2 mi
2:00 PM37 °FFog.9 mph87%29.27 "Hg1 mi
1:30 PM37 °FFog.10 mph87%29.27 "Hg1 mi
1:00 PM36 °FFog.12 mph87%29.27 "Hg1 mi
12:30 PM36 °FFog.10 mph87%29.27 "Hg1 mi
12:00 PM36 °FFog.12 mph87%29.27 "Hg1 mi
11:30 AM36 °FFog.13 mph87%29.27 "Hg1 mi
11:00 AM36 °FFog.10 mph87%29.27 "Hg1 mi
10:30 AM36 °FFog.10 mph87%29.27 "Hg2 mi
10:00 AM36 °FFog.10 mph93%29.27 "Hg2 mi
9:30 AM37 °FFog.9 mph87%29.24 "Hg2 mi
8:30 AM34 °FFog.7 mph93%29.27 "Hg2 mi
8:00 AM34 °FFog.6 mph87%29.27 "Hg1 mi
7:30 AM34 °FFog.7 mph87%29.27 "Hg1 mi
7:00 AM34 °FFog.8 mph87%29.27 "Hg1 mi
6:30 AM34 °FFog.6 mph93%29.27 "Hg1 mi
6:00 AM36 °FFog.6 mph87%29.27 "Hg2 mi
5:30 AM36 °FFog.5 mph93%29.27 "Hg2 mi
5:00 AM36 °FFog.8 mph93%29.27 "Hg2 mi
4:30 AM36 °FFog.5 mph93%29.27 "Hg2 mi
4:00 AM36 °FFog.7 mph87%29.30 "Hg2 mi
3:30 AM36 °FFog.6 mph87%29.30 "Hg2 mi
3:00 AM36 °FFog.6 mph87%29.30 "Hg1 mi
2:30 AM36 °FFog.6 mph87%29.30 "Hg2 mi
2:00 AM36 °FFog.6 mph87%29.30 "Hg2 mi
1:30 AM36 °FFog.5 mph87%29.30 "Hg2 mi
1:00 AM36 °FFog.5 mph93%29.33 "Hg2 mi
12:30 AM36 °FFog.5 mph93%29.33 "Hg2 mi
12:00 AM36 °FLight rain. Fog.6 mph93%29.33 "Hg2 mi
11:30 PM
Sat, Feb 13
36 °FFog.3 mph93%29.33 "Hg2 mi
10:30 PM36 °FFog.5 mph93%29.33 "Hg2 mi
10:00 PM36 °FFog.6 mph87%29.33 "Hg2 mi
9:30 PM36 °FFog.5 mph87%29.36 "Hg2 mi
9:00 PM36 °FFog.5 mph87%29.36 "Hg2 mi
8:30 PM36 °FFog.6 mph87%29.36 "Hg2 mi
8:00 PM36 °FFog.7 mph87%29.39 "Hg2 mi
7:30 PM36 °FFog.6 mph87%29.39 "Hg1 mi
7:00 PM36 °FFog.7 mph87%29.39 "Hg2 mi
6:30 PM36 °FFog.6 mph87%29.39 "Hg2 mi
6:00 PM36 °FFog.7 mph87%29.39 "Hg2 mi
Weather by CustomWeather, © 2016

See weather overviewHow to use our weather pages